Terminal Aerodrome Forecast
Issued by NWS

Home | Current Version | Previous Version | Text Only | Print | Product List | Glossary On
Versions: 1 2 3 4 5 6 7 8 9 10 11 12 13 14 15 16 17 18 19 20 21 22 23 24
000
FTUS42 KMFL 172330
TAFOPF
TAF
KOPF 172330Z 1800/1824 10003KT P6SM FEW025 SCT050 SCT250
     FM180800 VRB03KT 6SM BR FEW001 SCT025 BKN050
     FM181500 10010KT P6SM FEW015 SCT030 BKN050=

USA.gov is the U.S. government's official web portal to all federal, state and local government web resources and services.